[[{"header":{"parameterUnit":"m.s-1","parameterCategory":1,"la1":30.2991,"la2":30.254,"lo1":-89.0895,"lo2":-89.0444,"dy":0.0017,"dx":0.0017,"nx":28,"ny":28,"refTime":"2023-07-25T21:00:00:Z","depth":0,"parameterNumber":2,"parameterNumberName":"U-component_of_WINDS"},"data":[0,0,0,0,0,0,0,0,0,0,0,0,0,0,0,0,0,0,0,0,0,0,0,0,0,0,0,0,0,0,0,0,0,0,0,0,0,0,0,0,0,0,0,0,0,0,0,0,0,0,0,0,0,0,0,0,0,0,2.3552,2.3552,0,2.3605,2.3606,2.3606,2.3569,2.3568,2.3566,2.3564,2.3619,2.3622,2.3625,0,0,0,0,0,0,0,0,0,0,0,0,0,2.3416,2.3419,2.3552,2.3552,2.3553,2.3605,2.3606,2.3606,2.3569,2.3567,2.3565,2.3564,2.3618,2.3622,2.3625,0,0,0,0,0,0,0,0,0,0,0,0,0,2.3473,2.342,2.3552,2.3541,2.354,2.3605,2.3606,2.3607,2.357,2.3567,2.3565,2.3563,2.3617,2.3621,2.3626,2.3704,0,0,2.364,2.3642,0,0,0,0,0,0,0,0,2.347,2.3478,2.3542,2.3542,2.3541,2.3578,2.3578,2.3639,2.3571,2.3559,2.3564,2.3561,2.3607,2.3613,2.3628,2.3706,2.3709,2.364,2.3643,2.3645,2.3646,0,0,0,0,0,0,0,2.3466,2.3475,2.3573,2.3543,2.3542,2.3533,2.3538,2.3589,2.3596,2.356,2.3557,2.3564,2.3607,2.3624,2.3629,2.3709,2.364,2.3644,2.3647,2.3648,2.385,2.3853,0,0,0,0,0,0,2.3463,2.3472,2.3571,2.3574,2.3499,2.3537,2.3543,2.3569,2.3596,2.3597,2.3566,2.3562,2.3617,2.3624,2.3631,2.3721,2.3645,2.3649,2.3651,2.3848,2.3851,2.3854,0,0,0,0,0,0,2.346,2.3472,2.3569,2.3523,2.3534,2.3542,2.3571,2.3571,2.3588,2.3601,2.3602,2.3582,2.3616,2.3624,2.3685,2.3723,2.3651,2.3655,2.3845,2.3849,2.3853,2.3904,0,0,0,0,0,0,2.3456,2.3471,2.3502,2.3524,2.3537,2.3623,2.3574,2.3574,2.3596,2.3591,2.3616,2.3618,2.3614,2.3678,2.3689,2.3727,2.3658,2.3841,2.3847,2.3851,2.3899,2.3909,2.3918,0,0,0,0,0,2.3452,2.3515,2.3503,2.3515,2.3575,2.3625,2.3633,2.3627,2.3599,2.3629,2.3636,2.3617,2.3717,2.3685,2.3697,2.3737,2.3839,2.3845,2.3851,2.3895,2.3907,2.3918,0,0,0,0,0,0,2.3498,2.3518,2.3505,2.3577,2.36,2.3619,2.3656,2.3641,2.3673,2.3667,2.3659,2.3665,2.3728,2.3739,2.3703,2.3812,2.3773,2.3782,2.3802,2.3815,2.3824,2.3819,2.3662,0,0,0,0,0,2.3516,2.3556,2.3571,2.3633,2.3645,2.3649,2.3671,2.3664,2.3687,2.3697,2.3709,2.3732,2.3768,2.3792,2.3827,2.3901,2.3904,2.3934,2.3944,2.3951,2.3958,2.3995,2.4008,2.3874,2.3874,2.3873,0,0,2.3555,2.357,2.3596,2.3642,2.3659,2.3699,2.3657,2.3702,2.3731,2.3704,2.376,2.377,2.3795,2.3862,2.3892,2.3873,2.3996,2.3959,2.3965,2.3968,2.4003,2.4015,2.4027,2.3878,2.3877,2.3876,0,0,2.3645,2.3662,2.3714,2.3731,2.3756,2.3758,2.3771,2.3792,2.3797,2.3854,2.3833,2.3868,2.3932,2.3949,2.3966,2.4061,2.4043,2.4072,2.4122,2.4158,2.4168,2.4178,2.4209,2.422,2.408,2.408,2.408,0,2.369,2.3749,2.3743,2.3788,2.3808,2.3784,2.3836,2.3853,2.3889,2.3902,2.3881,2.3958,2.3973,2.4042,2.4065,2.4081,2.4093,2.4069,2.4167,2.4177,2.4185,2.4215,2.4227,2.4083,2.4083,2.4082,2.4082,0,2.3802,2.3843,2.3882,2.3916,2.394,2.3989,2.3988,2.4014,2.4005,2.4009,2.4066,2.4083,2.4119,2.4136,2.4129,2.4203,2.419,2.4168,2.4129,2.4201,2.4229,2.424,2.4088,2.4086,2.4086,2.4085,0,0,2.3923,2.395,2.3964,2.3978,2.4003,2.4035,2.4082,2.4116,2.4137,2.4162,2.4199,2.4253,2.4231,2.4251,2.4246,2.4278,2.4348,2.4251,2.4252,2.4266,2.4428,2.4442,2.4456,2.4336,2.4339,2.434,2.4425,0,2.4012,2.4093,2.4087,2.4163,2.4199,2.4177,2.4217,2.4236,2.4241,2.4272,2.4277,2.4313,2.4284,2.4296,2.4326,2.4333,2.4379,2.4327,2.4369,2.4371,2.4362,2.447,2.4487,2.4565,2.4436,2.4437,2.4439,0,2.4128,2.4155,2.4234,2.4251,2.4266,2.4302,2.4332,2.4363,2.4383,2.4384,2.4405,2.4393,2.4439,2.4399,2.4461,2.4425,2.4442,2.4447,2.445,2.4452,2.4408,2.4473,2.4591,2.4601,2.4456,2.4455,2.4453,0,2.4204,2.4261,2.4315,2.4328,2.435,2.4375,2.4385,2.4404,2.4424,2.445,2.4462,2.4494,2.4511,2.4535,2.4531,2.4503,2.4593,2.4554,2.4593,2.4593,2.4612,2.461,2.4731,2.4627,2.4627,2.4626,2.4626,0,2.4304,2.4352,2.4349,2.4382,2.4435,2.4428,2.448,2.4487,2.4503,2.4536,2.4519,2.4551,2.4545,2.4576,2.4574,2.4623,2.4632,2.4632,2.4631,2.4633,2.4632,2.4642,2.4636,2.4629,2.4629,2.4628,2.4628,0,2.4398,2.4398,2.4455,2.447,2.4475,2.4513,2.4526,2.4556,2.4559,2.4601,2.461,2.4614,2.4649,2.4648,2.4689,2.4687,2.4747,2.474,2.474,2.4737,2.4776,2.4771,2.4905,2.4922,2.4809,2.481,2.4811,0,2.4461,2.4497,2.4516,2.4536,2.4547,2.4581,2.4601,2.4595,2.4616,2.4641,2.4668,2.4701,2.4727,2.4784,2.4791,2.4821,2.4813,2.4858,2.4818,2.4817,2.481,2.4807,2.481,2.4866,2.4867,2.4868,2.4869,0,2.457,2.4568,2.4597,2.4626,2.465,2.4672,2.4693,2.4711,2.4706,2.4731,2.4766,2.4786,2.4826,2.4859,2.4888,2.4897,2.4882,2.4882,2.4892,2.4893,2.489,2.4889,2.4759,2.4878,2.4877,2.4876,2.4876,2.4876,2.4649,2.4679,2.4696,2.4728,2.4742,2.4761,2.479,2.4795,2.4824,2.4856,2.485,2.4889,2.4906,2.4943,2.4955,2.4985,2.4969,2.4984,2.4988,2.4991,2.4994,2.4887,2.499,2.499,2.499,2.499,2.4989,0,2.4755,2.4764,2.4794,2.4822,2.4847,2.483,2.4852,2.4873,2.4907,2.4925,2.495,2.4989,2.502,2.5028,2.5058,2.508,2.5073,2.5087,2.5084,2.5086,2.5008,2.4995,2.5092,2.5092,2.5092,2.5092,2.5092,2.5092,2.4813,2.4862,2.4861,2.4916,2.4925,2.4962,2.4975,2.4992,2.5006,2.505,2.5075,2.508,2.5093,2.5122,2.5149,2.5151,2.5161,2.5178,2.5176,2.5103,2.5092,2.5082,2.507,2.5181,2.5181,2.5252,2.5253,2.5253]},{"header":{"parameterUnit":"m.s-1","parameterCategory":1,"la1":30.2991,"la2":30.254,"lo1":-89.0895,"lo2":-89.0444,"dy":0.0017,"dx":0.0017,"nx":28,"ny":28,"refTime":"2023-07-25T21:00:00:Z","depth":0,"parameterNumber":3,"parameterNumberName":"V-component_of_WINDS"},"data":[0,0,0,0,0,0,0,0,0,0,0,0,0,0,0,0,0,0,0,0,0,0,0,0,0,0,0,0,0,0,0,0,0,0,0,0,0,0,0,0,0,0,0,0,0,0,0,0,0,0,0,0,0,0,0,0,0,0,0.4612,0.4612,0,0.4631,0.4631,0.4631,0.4611,0.461,0.4609,0.4609,0.4628,0.4629,0.4631,0,0,0,0,0,0,0,0,0,0,0,0,0,0.4559,0.456,0.4612,0.4612,0.4613,0.4631,0.4631,0.4631,0.4611,0.461,0.4609,0.4608,0.4628,0.4629,0.4631,0,0,0,0,0,0,0,0,0,0,0,0,0,0.458,0.4561,0.4612,0.4605,0.4604,0.463,0.4631,0.4631,0.4611,0.461,0.4609,0.4608,0.4627,0.4629,0.4631,0.4665,0,0,0.4637,0.4637,0,0,0,0,0,0,0,0,0.4579,0.4582,0.4606,0.4605,0.4605,0.4617,0.4619,0.4643,0.4612,0.4609,0.4609,0.4607,0.4625,0.4627,0.4633,0.4666,0.4667,0.4637,0.4638,0.4639,0.4639,0,0,0,0,0,0,0,0.4578,0.4582,0.4619,0.4606,0.4606,0.46,0.4602,0.4624,0.4623,0.4609,0.4607,0.461,0.4625,0.4632,0.4634,0.4667,0.4637,0.4638,0.4639,0.464,0.4728,0.4729,0,0,0,0,0,0,0.4577,0.458,0.4619,0.462,0.4589,0.4602,0.4604,0.4614,0.4623,0.4623,0.4611,0.4609,0.4629,0.4632,0.4634,0.4675,0.4639,0.464,0.4641,0.4727,0.4728,0.473,0,0,0,0,0,0,0.4576,0.4581,0.4618,0.46,0.4604,0.4604,0.4616,0.4615,0.4622,0.4624,0.4624,0.4618,0.4628,0.4632,0.4657,0.4675,0.4641,0.4643,0.4726,0.4727,0.4729,0.4756,0,0,0,0,0,0,0.4575,0.4581,0.4594,0.46,0.4605,0.4641,0.4617,0.4617,0.4625,0.4623,0.4631,0.4631,0.4628,0.4655,0.4659,0.4677,0.4644,0.4724,0.4726,0.4729,0.4754,0.4759,0.4763,0,0,0,0,0,0.4573,0.4601,0.4595,0.4599,0.4622,0.4642,0.4645,0.464,0.4627,0.464,0.4641,0.4631,0.4672,0.4658,0.4663,0.4681,0.4723,0.4726,0.4728,0.4752,0.4758,0.4763,0,0,0,0,0,0,0.4598,0.4602,0.4595,0.4626,0.4634,0.4639,0.4656,0.4647,0.4659,0.4657,0.465,0.4652,0.4679,0.4683,0.4666,0.4714,0.4695,0.4699,0.4711,0.4717,0.4722,0.472,0.4646,0,0,0,0,0,0.4607,0.4623,0.4626,0.4653,0.4657,0.4656,0.4664,0.466,0.4668,0.4671,0.4674,0.4683,0.4697,0.4707,0.4721,0.4754,0.4755,0.4769,0.4773,0.4777,0.4781,0.4797,0.4803,0.4739,0.4739,0.4739,0,0,0.4626,0.463,0.4641,0.4658,0.4663,0.468,0.4659,0.4678,0.469,0.4674,0.4699,0.4701,0.471,0.4739,0.4752,0.4742,0.4799,0.4781,0.4784,0.4785,0.4801,0.4807,0.4812,0.4741,0.474,0.474,0,0,0.4669,0.4674,0.4696,0.4702,0.471,0.4709,0.4714,0.472,0.4721,0.4746,0.4734,0.4748,0.4774,0.478,0.4787,0.483,0.4821,0.4835,0.4859,0.4876,0.4881,0.4885,0.49,0.4906,0.4838,0.4839,0.4839,0,0.4691,0.4716,0.4709,0.4729,0.4736,0.4722,0.4745,0.4751,0.4763,0.4769,0.4758,0.4789,0.4794,0.4824,0.4834,0.484,0.4846,0.4834,0.4881,0.4885,0.4889,0.4903,0.4909,0.484,0.484,0.484,0.484,0,0.4743,0.476,0.4778,0.4789,0.4799,0.482,0.4816,0.4826,0.4821,0.482,0.4844,0.485,0.4864,0.487,0.4865,0.4899,0.4893,0.4882,0.4862,0.4897,0.491,0.4916,0.4843,0.4842,0.4841,0.4841,0,0,0.4804,0.481,0.4817,0.4821,0.4829,0.4842,0.4862,0.4875,0.4884,0.4892,0.4909,0.493,0.4919,0.4926,0.4922,0.4936,0.4969,0.4922,0.4922,0.4931,0.5006,0.5015,0.5022,0.4963,0.4964,0.4965,0.5006,0,0.4846,0.4881,0.4875,0.4908,0.4923,0.4909,0.4926,0.4932,0.4932,0.4945,0.4945,0.496,0.4944,0.4949,0.4962,0.4962,0.4984,0.4959,0.4978,0.4979,0.4976,0.5029,0.5038,0.5077,0.5011,0.5012,0.5012,0,0.4901,0.4911,0.4946,0.495,0.4956,0.4972,0.4983,0.4995,0.5001,0.5,0.5008,0.5,0.5019,0.4999,0.5026,0.5009,0.5015,0.5017,0.5018,0.502,0.4998,0.5032,0.5089,0.5095,0.5021,0.502,0.5019,0,0.4941,0.4964,0.4987,0.4991,0.4996,0.5008,0.501,0.5015,0.5023,0.5033,0.5038,0.505,0.5056,0.5065,0.5061,0.5047,0.5088,0.5067,0.5087,0.5087,0.5097,0.5096,0.5156,0.5101,0.5101,0.5101,0.5101,0,0.499,0.5012,0.5005,0.5019,0.5043,0.5035,0.5059,0.506,0.5064,0.5078,0.5067,0.508,0.5073,0.5086,0.5082,0.5104,0.5107,0.5106,0.5105,0.5108,0.5108,0.5112,0.511,0.5102,0.5102,0.5102,0.5101,0,0.5039,0.5035,0.506,0.5062,0.5063,0.508,0.5082,0.5096,0.5094,0.5112,0.5115,0.5113,0.5127,0.5123,0.5139,0.5136,0.5164,0.516,0.5162,0.5161,0.518,0.5179,0.5245,0.5253,0.5193,0.5194,0.5194,0,0.5071,0.5087,0.5091,0.5099,0.5102,0.5116,0.5124,0.5116,0.5125,0.5133,0.5145,0.5158,0.5168,0.5191,0.5191,0.5203,0.5198,0.5221,0.52,0.5201,0.5198,0.5197,0.5199,0.5225,0.5226,0.5226,0.5227,0,0.5127,0.5123,0.5135,0.5145,0.5155,0.5163,0.517,0.5177,0.517,0.5181,0.5195,0.5202,0.5218,0.5231,0.5241,0.5244,0.5234,0.5233,0.5238,0.5241,0.5241,0.5241,0.5173,0.5232,0.5231,0.5231,0.5231,0.523,0.5168,0.5181,0.5185,0.5198,0.5202,0.5209,0.5221,0.522,0.5232,0.5244,0.5239,0.5255,0.526,0.5272,0.5276,0.5288,0.528,0.5287,0.5289,0.5291,0.5293,0.5239,0.529,0.529,0.529,0.529,0.529,0,0.5223,0.5224,0.5236,0.5246,0.5256,0.5245,0.5252,0.5261,0.5275,0.528,0.529,0.5306,0.5318,0.5318,0.5329,0.5339,0.5335,0.5342,0.5342,0.5342,0.5301,0.5295,0.5346,0.5346,0.5346,0.5346,0.5345,0.5345,0.5253,0.5274,0.5271,0.5295,0.5296,0.5312,0.5316,0.5322,0.5326,0.5344,0.5354,0.5354,0.5357,0.5368,0.5378,0.5378,0.5382,0.5392,0.539,0.5351,0.5345,0.534,0.5335,0.5393,0.5393,0.543,0.543,0.5431]}]]